Manteo, NC

6:59 PM EDT on April 23, 2017 (GMT -0400)
Dare County Regional

Weather History for KMQI - December, 2012

Change the Weather History Date:

Friday, December 14, 2012

  Actual Average Record
Temperature  
Mean Temperature 45 °F -  
Max Temperature 54 °F 53 °F 72 °F (1991)
Min Temperature 36 °F 40 °F 26 °F (2010)
Degree Days  
Heating Degree Days 20    
Moisture  
Dew Point 42 °F    
Average Humidity 83    
Maximum Humidity 99    
Minimum Humidity 62    
Precipitation  
Precipitation 0.00 in - - ()
Sea Level Pressure  
Sea Level Pressure 30.29 in    
Wind  
Wind Speed 8 mph (NNE)    
Max Wind Speed 13 mph    
Max Gust Speed 17 mph    
Visibility 9 miles    
Events      
Averages and records for this station are not official NWS values.
T = Trace of Precipitation, MM = Missing Value Source: NWS Daily Summary

Daily Weather History Graph

Daily Weather History Graph

Search for Another Location

Airport or City:

Trip Planner

Search our weather history database for the weather conditions in past years. The results will help you decide how hot, cold, wet, or windy it might be!

Date:

Astronomy

Dec. 14, 2012 Rise Set
Actual Time 7:05 AM EST 4:49 PM EST
Civil Twilight 6:36 AM EST 5:18 PM EST
Nautical Twilight 6:04 AM EST 5:50 PM EST
Astronomical Twilight 5:33 AM EST 6:21 PM EST
Moon 8:09 AM EST (12/14) 6:37 PM EST (12/14)
Length of Visible Light 10h 41m
Length of Day
9h 44m
Waxing Crescent, 3% of the Moon is Illuminated
Dec 14
Waxing Crescent
Dec 20
First Quarter
Dec 28
Full
Jan 4
Last Quarter
Jan 11
New

Hourly Weather History & Observations

Time (EST) Temp. Dew Point Humidity Pressure Visibility Wind Dir Wind Speed Gust Speed Precip Events Conditions
12:15 AM 49.1 °F 44.2 °F 83% 30.29 in 10.0 mi NNE 11.5 mph - N/A   Clear
12:35 AM 48.9 °F 44.1 °F 83% 30.29 in 10.0 mi NNE 11.5 mph 16.1 mph N/A   Clear
12:55 AM 48.7 °F 44.1 °F 84% 30.29 in 10.0 mi NNE 9.2 mph - N/A   Clear
1:15 AM 48.6 °F 44.1 °F 84% 30.29 in 10.0 mi NNE 9.2 mph - N/A   Clear
1:35 AM 48.4 °F 44.1 °F 85% 30.29 in 10.0 mi NNE 10.4 mph - N/A   Clear
1:55 AM 48.4 °F 44.2 °F 86% 30.29 in 10.0 mi NNE 9.2 mph - N/A   Clear
2:15 AM 48.6 °F 44.2 °F 85% 30.29 in 10.0 mi NNE 10.4 mph - N/A   Clear
2:35 AM 48.7 °F 44.2 °F 84% 30.29 in 10.0 mi NNE 10.4 mph 16.1 mph N/A   Clear
2:55 AM 48.6 °F 44.1 °F 84% 30.29 in 10.0 mi NNE 8.1 mph - N/A   Clear
3:15 AM 48.4 °F 44.1 °F 85% 30.28 in 10.0 mi NNE 10.4 mph - N/A   Clear
3:35 AM 48.2 °F 44.1 °F 86% 30.28 in 10.0 mi NNE 11.5 mph - N/A   Clear
3:55 AM 48.4 °F 44.1 °F 85% 30.28 in 10.0 mi NNE 10.4 mph - N/A   Clear
4:15 AM 48.4 °F 43.9 °F 84% 30.28 in 10.0 mi NNE 9.2 mph - N/A   Clear
4:35 AM 48.2 °F 43.9 °F 85% 30.28 in 10.0 mi NNE 9.2 mph - N/A   Clear
4:55 AM 48.2 °F 44.1 °F 86% 30.28 in 10.0 mi NNE 6.9 mph - N/A   Clear
5:15 AM 47.5 °F 43.9 °F 87% 30.28 in 10.0 mi NNE 9.2 mph - N/A   Clear
5:35 AM 47.8 °F 44.1 °F 87% 30.29 in 10.0 mi NNE 9.2 mph - N/A   Clear
6:15 AM 48.0 °F 43.9 °F 86% 30.30 in 10.0 mi North 8.1 mph - N/A   Clear
6:35 AM 47.8 °F 44.1 °F 87% 30.30 in 10.0 mi North 9.2 mph - N/A   Clear
6:55 AM 47.7 °F 44.1 °F 87% 30.31 in 10.0 mi North 11.5 mph - N/A   Clear
7:15 AM 48.2 °F 44.2 °F 86% 30.31 in 10.0 mi North 11.5 mph 16.1 mph N/A   Clear
7:35 AM 48.7 °F 44.4 °F 85% 30.32 in 10.0 mi NNE 12.7 mph - N/A   Clear
7:55 AM 49.5 °F 44.6 °F 83% 30.32 in 10.0 mi NNE 11.5 mph 17.3 mph N/A   Clear
8:15 AM 50.0 °F 44.8 °F 82% 30.33 in 10.0 mi NNE 10.4 mph - N/A   Clear
8:35 AM 50.9 °F 44.8 °F 80% 30.33 in 10.0 mi NNE 9.2 mph - N/A   Clear
8:55 AM 51.4 °F 44.8 °F 78% 30.34 in 10.0 mi NNE 10.4 mph - N/A   Clear
9:15 AM 52.2 °F 45.1 °F 77% 30.34 in 10.0 mi NNE 9.2 mph - N/A   Clear
9:35 AM 52.7 °F 45.3 °F 76% 30.35 in 10.0 mi NNE 8.1 mph - N/A   Clear
9:55 AM 52.7 °F 45.1 °F 75% 30.34 in 10.0 mi NNE 10.4 mph - N/A   Clear
10:15 AM 53.1 °F 45.5 °F 75% 30.35 in 10.0 mi NNE 8.1 mph - N/A   Clear
10:35 AM 53.1 °F 45.0 °F 74% 30.33 in 10.0 mi NNE 10.4 mph - N/A   Clear
10:55 AM 53.8 °F 45.1 °F 73% 30.32 in 10.0 mi NNE 9.2 mph - N/A   Clear
11:15 AM 53.6 °F 45.0 °F 73% 30.32 in 10.0 mi NE 6.9 mph - N/A   Clear
11:35 AM 54.3 °F 45.5 °F 72% 30.31 in 10.0 mi NNE 6.9 mph - N/A   Clear
11:55 AM 54.5 °F 45.1 °F 71% 30.31 in 10.0 mi North 9.2 mph - N/A   Clear
12:15 PM 54.5 °F 44.8 °F 70% 30.30 in 10.0 mi North 8.1 mph - N/A   Clear
12:35 PM 54.1 °F 44.1 °F 69% 30.30 in 10.0 mi NNE 8.1 mph - N/A   Clear
12:55 PM 54.5 °F 44.2 °F 68% 30.29 in 10.0 mi NE 6.9 mph - N/A   Clear
1:15 PM 54.5 °F 43.9 °F 67% 30.29 in 10.0 mi NNE 5.8 mph - N/A   Clear
1:35 PM 54.5 °F 44.1 °F 68% 30.28 in 10.0 mi NNE 5.8 mph - N/A   Clear
1:55 PM 54.3 °F 44.1 °F 68% 30.27 in 10.0 mi North 4.6 mph - N/A   Clear
2:15 PM 54.1 °F 43.2 °F 66% 30.27 in 10.0 mi NNE 4.6 mph - N/A   Clear
2:35 PM 54.5 °F 43.7 °F 67% 30.27 in 10.0 mi Calm Calm - N/A   Clear
2:55 PM 54.5 °F 41.9 °F 62% 30.27 in 10.0 mi Calm Calm - N/A   Clear
3:15 PM 54.1 °F 41.9 °F 63% 30.26 in 10.0 mi Calm Calm - N/A   Clear
3:35 PM 53.6 °F 41.4 °F 63% 30.26 in 10.0 mi North 3.5 mph - N/A   Clear
3:55 PM 52.7 °F 41.7 °F 66% 30.27 in 10.0 mi Calm Calm - N/A   Clear
4:15 PM 51.8 °F 41.7 °F 68% 30.27 in 10.0 mi Calm Calm - N/A   Clear
4:35 PM 50.2 °F 42.8 °F 76% 30.26 in 10.0 mi Calm Calm - N/A   Clear
5:15 PM 45.9 °F 41.9 °F 86% 30.25 in 10.0 mi Calm Calm - N/A   Clear
5:35 PM 43.3 °F 41.2 °F 92% 30.25 in 10.0 mi Calm Calm - N/A   Clear
5:55 PM 44.4 °F 41.4 °F 89% 30.25 in 10.0 mi Calm Calm - N/A   Clear
6:15 PM 42.4 °F 40.6 °F 93% 30.26 in 10.0 mi Calm Calm - N/A   Clear
6:35 PM 42.1 °F 40.5 °F 94% 30.26 in 10.0 mi Calm Calm - N/A   Clear
6:55 PM 41.4 °F 40.3 °F 96% 30.26 in 10.0 mi Calm Calm - N/A   Clear
7:15 PM 40.5 °F 39.4 °F 96% 30.27 in 7.0 mi Calm Calm - N/A   Clear
7:35 PM 38.8 °F 37.9 °F 97% 30.27 in 5.0 mi Calm Calm - N/A   Clear
7:55 PM 40.1 °F 39.4 °F 97% 30.27 in 4.0 mi Calm Calm - N/A   Clear
8:15 PM 40.1 °F 39.2 °F 97% 30.27 in 5.0 mi Calm Calm - N/A   Clear
8:55 PM 39.4 °F 38.8 °F 98% 30.26 in 1.0 mi Calm Calm - N/A   Mist
9:15 PM 38.7 °F 38.3 °F 99% 30.26 in 4.0 mi Calm Calm - N/A   Clear
9:35 PM 37.8 °F 37.0 °F 97% 30.27 in 2.0 mi Calm Calm - N/A   Clear
9:55 PM 37.0 °F 36.7 °F 99% 30.27 in 5.0 mi Calm Calm - N/A   Clear
10:15 PM 38.1 °F 37.8 °F 99% 30.27 in 2.5 mi Calm Calm - N/A   Clear
10:35 PM 37.0 °F 36.7 °F 99% 30.27 in 7.0 mi Calm Calm - N/A   Clear
10:55 PM 36.7 °F 36.0 °F 97% 30.28 in 1.2 mi Calm Calm - N/A   Mist
11:15 PM 37.2 °F 36.7 °F 98% 30.27 in 3.0 mi Calm Calm - N/A   Clear
11:35 PM 36.7 °F 36.5 °F 99% 30.27 in 3.0 mi Calm Calm - N/A   Clear
11:55 PM 36.5 °F 36.3 °F 99% 30.26 in 1.2 mi Calm Calm - N/A   Mist